TimeEST,TemperatureF,Dew PointF,Humidity,Sea Level PressureIn,VisibilityMPH,Wind Direction,Wind SpeedMPH,Gust SpeedMPH,PrecipitationIn,Events,Conditions,WindDirDegrees,DateUTC
12:15 AM,15.8,14.0,93,30.00,9.0,Calm,Calm,-,N/A,,Overcast,0,2014-02-13 05:15:00
12:35 AM,15.8,14.0,93,30.00,8.0,Calm,Calm,-,N/A,,Overcast,0,2014-02-13 05:35:00
12:55 AM,15.8,14.0,93,29.99,9.0,South,3.5,-,N/A,,Overcast,180,2014-02-13 05:55:00
1:15 AM,15.8,14.0,93,29.99,10.0,South,3.5,-,N/A,,Overcast,180,2014-02-13 06:15:00
1:35 AM,15.8,14.0,93,29.98,10.0,SSE,3.5,-,N/A,,Overcast,160,2014-02-13 06:35:00
1:55 AM,15.8,14.0,93,29.97,10.0,SE,3.5,-,N/A,,Overcast,140,2014-02-13 06:55:00
2:15 AM,14.0,12.2,93,29.97,10.0,SE,3.5,-,N/A,,Overcast,140,2014-02-13 07:15:00
2:35 AM,14.0,12.2,93,29.97,10.0,SSE,3.5,-,N/A,,Overcast,160,2014-02-13 07:35:00
2:55 AM,14.0,14.0,100,29.97,10.0,SE,3.5,-,N/A,,Overcast,130,2014-02-13 07:55:00
3:15 AM,15.8,12.2,86,29.97,9.0,SE,3.5,-,N/A,,Overcast,140,2014-02-13 08:15:00
3:35 AM,15.8,14.0,93,29.96,9.0,SE,5.8,-,N/A,,Overcast,140,2014-02-13 08:35:00
3:55 AM,15.8,14.0,93,29.96,8.0,SE,4.6,-,N/A,,Overcast,130,2014-02-13 08:55:00
4:15 AM,15.8,14.0,93,29.95,9.0,South,4.6,-,N/A,,Overcast,170,2014-02-13 09:15:00
4:35 AM,15.8,14.0,93,29.96,9.0,SE,5.8,-,N/A,,Overcast,130,2014-02-13 09:35:00
4:55 AM,15.8,14.0,93,29.95,9.0,ESE,5.8,-,N/A,,Overcast,110,2014-02-13 09:55:00
5:15 AM,15.8,15.8,100,29.96,7.0,East,4.6,-,N/A,,Overcast,90,2014-02-13 10:15:00
5:35 AM,15.8,15.8,100,29.96,10.0,East,3.5,-,N/A,,Overcast,100,2014-02-13 10:35:00
5:55 AM,15.8,15.8,100,29.96,8.0,East,4.6,-,N/A,,Overcast,100,2014-02-13 10:55:00
6:15 AM,15.8,15.8,100,29.95,8.0,ESE,5.8,-,N/A,,Overcast,120,2014-02-13 11:15:00
6:35 AM,15.8,15.8,100,29.94,9.0,ESE,6.9,-,N/A,,Overcast,110,2014-02-13 11:35:00
6:55 AM,15.8,15.8,100,29.94,9.0,ESE,6.9,-,N/A,,Overcast,110,2014-02-13 11:55:00
7:15 AM,15.8,15.8,100,29.93,7.0,East,9.2,-,N/A,,Overcast,100,2014-02-13 12:15:00
7:35 AM,15.8,15.8,100,29.93,7.0,ESE,8.1,-,N/A,,Overcast,120,2014-02-13 12:35:00
7:55 AM,15.8,14.0,93,29.92,7.0,ESE,8.1,-,N/A,,Overcast,120,2014-02-13 12:55:00
8:15 AM,17.6,15.8,93,29.92,5.0,ESE,9.2,-,N/A,,Overcast,120,2014-02-13 13:15:00
8:35 AM,17.6,17.6,100,29.91,3.0,SE,9.2,-,N/A,,Overcast,130,2014-02-13 13:35:00
8:55 AM,17.6,15.8,93,29.91,2.5,SE,9.2,-,N/A,,Overcast,140,2014-02-13 13:55:00
9:15 AM,19.4,17.6,93,29.90,2.5,SE,6.9,-,N/A,,Overcast,130,2014-02-13 14:15:00
9:35 AM,19.4,17.6,93,29.88,3.0,SE,8.1,-,N/A,,Overcast,130,2014-02-13 14:35:00
9:55 AM,19.4,19.4,100,29.87,4.0,ESE,8.1,-,N/A,,Overcast,120,2014-02-13 14:55:00
10:15 AM,19.4,19.4,100,29.86,5.0,SE,11.5,-,N/A,,Overcast,130,2014-02-13 15:15:00
10:35 AM,21.2,19.4,93,29.84,9.0,SE,12.7,-,N/A,,Overcast,130,2014-02-13 15:35:00
10:55 AM,21.2,19.4,93,29.84,10.0,ESE,17.3,-,N/A,,Overcast,120,2014-02-13 15:55:00
11:15 AM,21.2,19.4,93,29.84,9.0,SE,15.0,-,N/A,,Overcast,130,2014-02-13 16:15:00
11:35 AM,21.2,19.4,93,29.82,7.0,SE,16.1,21.9,N/A,,Overcast,130,2014-02-13 16:35:00
11:55 AM,21.2,19.4,93,29.81,8.0,SE,20.7,24.2,N/A,,Overcast,130,2014-02-13 16:55:00
12:15 PM,21.2,19.4,93,29.79,9.0,ESE,21.9,27.6,N/A,,Overcast,120,2014-02-13 17:15:00
12:35 PM,21.2,19.4,93,29.77,10.0,SE,21.9,27.6,N/A,,Overcast,130,2014-02-13 17:35:00
12:55 PM,21.2,19.4,93,29.76,10.0,SE,21.9,26.5,N/A,,Overcast,130,2014-02-13 17:55:00
1:15 PM,23.0,19.4,86,29.75,10.0,SE,21.9,25.3,N/A,,Overcast,130,2014-02-13 18:15:00
1:35 PM,23.0,19.4,86,29.74,8.0,SE,20.7,-,N/A,,Overcast,130,2014-02-13 18:35:00
1:55 PM,23.0,19.4,86,29.73,9.0,SE,18.4,24.2,N/A,,Overcast,130,2014-02-13 18:55:00
2:35 PM,23.0,21.2,93,29.71,4.0,SE,17.3,26.5,N/A,,Overcast,130,2014-02-13 19:35:00
2:55 PM,23.0,21.2,93,29.70,5.0,SE,16.1,23.0,N/A,,Overcast,130,2014-02-13 19:55:00
3:15 PM,21.2,21.2,100,29.69,2.5,ESE,21.9,31.1,N/A,,Overcast,120,2014-02-13 20:15:00
3:35 PM,21.2,19.4,93,29.67,2.5,ESE,21.9,27.6,N/A,,Overcast,120,2014-02-13 20:35:00
3:55 PM,21.2,19.4,93,29.65,1.5,ESE,24.2,33.4,N/A,,Overcast,120,2014-02-13 20:55:00
4:15 PM,21.2,19.4,93,29.66,2.5,SE,19.6,31.1,N/A,,Overcast,130,2014-02-13 21:15:00
4:35 PM,21.2,19.4,93,29.65,2.5,SE,20.7,26.5,N/A,,Overcast,130,2014-02-13 21:35:00
4:55 PM,21.2,19.4,93,29.64,3.0,ESE,20.7,25.3,N/A,,Overcast,120,2014-02-13 21:55:00
5:15 PM,21.2,19.4,93,29.64,5.0,ESE,18.4,-,N/A,,Overcast,120,2014-02-13 22:15:00
5:35 PM,21.2,19.4,93,29.63,4.0,ESE,18.4,-,N/A,,Overcast,120,2014-02-13 22:35:00
5:55 PM,21.2,19.4,93,29.63,1.5,ESE,16.1,27.6,N/A,,Overcast,120,2014-02-13 22:55:00
6:15 PM,21.2,19.4,93,29.61,1.2,ESE,16.1,23.0,N/A,,Overcast,110,2014-02-13 23:15:00
6:35 PM,19.4,19.4,100,29.60,2.5,East,18.4,27.6,N/A,,Overcast,100,2014-02-13 23:35:00
6:55 PM,19.4,19.4,100,29.61,10.0,ESE,16.1,-,N/A,,Overcast,120,2014-02-13 23:55:00
7:15 PM,19.4,17.6,93,29.61,9.0,ESE,16.1,20.7,N/A,,Overcast,120,2014-02-14 00:15:00
7:35 PM,19.4,19.4,100,29.60,2.5,ESE,16.1,-,N/A,,Overcast,110,2014-02-14 00:35:00
7:55 PM,19.4,19.4,100,29.59,4.0,ESE,17.3,-,N/A,,Overcast,110,2014-02-14 00:55:00
8:15 PM,21.2,19.4,93,29.58,4.0,ESE,15.0,-,N/A,,Mostly Cloudy,120,2014-02-14 01:15:00
8:35 PM,21.2,19.4,93,29.58,5.0,East,11.5,20.7,N/A,,Overcast,100,2014-02-14 01:35:00
8:55 PM,19.4,19.4,100,29.57,2.0,East,10.4,-,N/A,,Overcast,100,2014-02-14 01:55:00
9:15 PM,19.4,19.4,100,29.57,3.0,East,13.8,-,N/A,,Overcast,100,2014-02-14 02:15:00
9:35 PM,19.4,19.4,100,29.57,3.0,East,11.5,-,N/A,,Overcast,100,2014-02-14 02:35:00
9:55 PM,19.4,19.4,100,29.56,3.0,East,13.8,-,N/A,,Overcast,100,2014-02-14 02:55:00
10:15 PM,19.4,19.4,100,29.55,4.0,East,16.1,-,N/A,,Overcast,100,2014-02-14 03:15:00
10:35 PM,19.4,19.4,100,29.55,3.0,East,13.8,-,N/A,,Overcast,100,2014-02-14 03:35:00
10:55 PM,19.4,19.4,100,29.54,2.5,East,16.1,-,N/A,,Overcast,100,2014-02-14 03:55:00
11:15 PM,19.4,19.4,100,29.53,2.5,ESE,13.8,19.6,N/A,,Overcast,110,2014-02-14 04:15:00
11:35 PM,19.4,17.6,93,29.52,7.0,East,15.0,-,N/A,,Overcast,100,2014-02-14 04:35:00
11:55 PM,19.4,17.6,93,29.52,5.0,ESE,13.8,21.9,N/A,,Overcast,110,2014-02-14 04:55:00